Вернуться в каталог

OPS 4682 DEB

АктивенPO
NORAD 18965·DEBRIS·🇺🇸 United States

Запущен Apr 3, 1965 с Vandenberg Space Force Base

Loading…

Ближайшие Пролёты (ближайшие 24 часа)

TLE

СвежийSource: Space-Track

Эпоха: Sep 14, 2026, 13:34 UTC

1 18965U 65027AN  26257.56549421  .00000017  00000-0  30461-4 0  9993
2 18965  90.2811  28.2787 0047068 200.2177 292.4570 12.99898083962104

Отслеживайте OPS 4682 DEB в реальном времени с AllMySat

Download on the App Store